Weather History for Silver Bay, MN

Change the Weather History Date:

Saturday, November 3, 2012

  Actual Average Record
Temperature  
Mean Temperature 30 °F -  
Max Temperature 35 °F 40 °F 57 °F (2001)
Min Temperature 26 °F 25 °F 14 °F (2011)
Degree Days  
Heating Degree Days 34    
Moisture  
Dew Point 23 °F    
Average Humidity 75    
Maximum Humidity 86    
Minimum Humidity 56    
Precipitation  
Precipitation 0.00 in - - ()
Sea Level Pressure  
Sea Level Pressure 30.23 in    
Wind  
Wind Speed 1 mph (ESE)    
Max Wind Speed 7 mph    
Max Gust Speed -    
Visibility 10 miles    
Events Snow    
Averages and records for this station are not official NWS values.
T = Trace of Precipitation, MM = Missing Value Source: NWS Daily Summary

Daily Weather History Graph

Daily Weather History Graph

Search for Another Location

Airport:

Trip Planner

Search our weather history database for the weather conditions in past years. The results will help you decide how hot, cold, wet, or windy it might be!

Date:

Astronomy

Nov. 03, 2012 Rise Set
Actual Time 7:52 AM CDT 5:45 PM CDT
Civil Twilight 7:20 AM CDT 6:17 PM CDT
Nautical Twilight 6:44 AM CDT 6:53 PM CDT
Astronomical Twilight 6:08 AM CDT 7:29 PM CDT
Moon 9:20 PM CDT (11/3) 12:04 PM CDT (11/3)
Length of Visible Light 10h 56m
Length of Day
9h 52m
Waning Gibbous, 80% of the Moon is Illuminated
Nov 3
Waning Gibbous
Nov 6
Last Quarter
Nov 13
New
Nov 20
First Quarter
Nov 28
Full

Hourly Weather History & Observations

Time (CDT) Temp. Windchill Dew Point Humidity Pressure Visibility Wind Dir Wind Speed Gust Speed Precip Events Conditions
12:13 AM 26.6 °F - 21.2 °F 80% 30.20 in 10.0 mi Calm Calm - N/A   Scattered Clouds
12:33 AM 26.6 °F - 21.2 °F 80% 30.20 in 10.0 mi Calm Calm - N/A   Scattered Clouds
12:53 AM 26.6 °F - 21.2 °F 80% 30.21 in 10.0 mi Calm Calm - N/A   Clear
1:13 AM 28.4 °F - 21.2 °F 74% 30.21 in 10.0 mi Calm Calm - N/A   Clear
1:33 AM 28.4 °F - 21.2 °F 74% 30.21 in 10.0 mi Calm Calm - N/A   Clear
1:53 AM 28.4 °F - 21.2 °F 74% 30.21 in 10.0 mi Calm Calm - N/A   Clear
2:13 AM 28.4 °F - 21.2 °F 74% 30.21 in 10.0 mi Calm Calm - N/A   Scattered Clouds
2:33 AM 28.4 °F - 21.2 °F 74% 30.21 in 10.0 mi Calm Calm - N/A   Scattered Clouds
2:53 AM 28.4 °F - 21.2 °F 74% 30.21 in 10.0 mi Calm Calm - N/A   Mostly Cloudy
3:13 AM 28.4 °F - 21.2 °F 74% 30.21 in 10.0 mi Calm Calm - N/A   Mostly Cloudy
3:33 AM 28.4 °F - 21.2 °F 74% 30.21 in 10.0 mi Calm Calm - N/A   Scattered Clouds
3:53 AM 28.4 °F - 21.2 °F 74% 30.21 in 10.0 mi Calm Calm - N/A   Scattered Clouds
4:13 AM 28.4 °F - 21.2 °F 74% 30.21 in 10.0 mi Calm Calm - N/A   Mostly Cloudy
4:33 AM 28.4 °F - 21.2 °F 74% 30.21 in 10.0 mi Calm Calm - N/A   Scattered Clouds
4:53 AM 28.4 °F - 21.2 °F 74% 30.21 in 10.0 mi Calm Calm - N/A   Scattered Clouds
5:13 AM 28.4 °F - 21.2 °F 74% 30.21 in 10.0 mi Calm Calm - N/A   Scattered Clouds
5:33 AM 28.4 °F - 21.2 °F 74% 30.21 in 10.0 mi Calm Calm - N/A   Scattered Clouds
5:53 AM 30.2 °F - 21.2 °F 69% 30.21 in 10.0 mi Calm Calm - N/A   Scattered Clouds
6:13 AM 30.2 °F - 23.0 °F 75% 30.21 in 10.0 mi Calm Calm - N/A   Scattered Clouds
6:33 AM 30.2 °F - 23.0 °F 75% 30.21 in 10.0 mi Calm Calm - N/A   Mostly Cloudy
6:53 AM 30.2 °F - 23.0 °F 75% 30.21 in 10.0 mi Calm Calm - N/A   Mostly Cloudy
7:13 AM 30.2 °F - 23.0 °F 75% 30.21 in 10.0 mi Calm Calm - N/A   Scattered Clouds
7:33 AM 30.2 °F - 23.0 °F 75% 30.21 in 10.0 mi Calm Calm - N/A   Scattered Clouds
7:53 AM 28.4 °F - 23.0 °F 80% 30.21 in 10.0 mi Calm Calm - N/A   Scattered Clouds
8:13 AM 28.4 °F - 24.8 °F 86% 30.22 in 10.0 mi Calm Calm - N/A   Scattered Clouds
8:33 AM 28.4 °F - 24.8 °F 86% 30.23 in 10.0 mi Calm Calm - N/A   Scattered Clouds
8:53 AM 30.2 °F - 24.8 °F 80% 30.23 in 10.0 mi Calm Calm - N/A   Scattered Clouds
9:13 AM 30.2 °F - 24.8 °F 80% 30.23 in 10.0 mi Calm Calm - N/A   Scattered Clouds
9:33 AM 30.2 °F - 24.8 °F 80% 30.23 in 10.0 mi Calm Calm - N/A   Scattered Clouds
9:53 AM 30.2 °F 24.3 °F 24.8 °F 80% 30.24 in 10.0 mi South 5.8 mph - N/A   Scattered Clouds
10:13 AM 30.2 °F 23.4 °F 24.8 °F 80% 30.24 in 1.5 mi SSW 6.9 mph - N/A Snow Light Snow
10:33 AM 30.2 °F 25.4 °F 24.8 °F 80% 30.24 in 4.0 mi SSW 4.6 mph - N/A Snow Light Snow
10:53 AM 30.2 °F 26.7 °F 24.8 °F 80% 30.24 in 7.0 mi WSW 3.5 mph - N/A   Clear
11:13 AM 32.0 °F - 24.8 °F 75% 30.25 in 5.0 mi Calm Calm - N/A   Haze
11:33 AM 32.0 °F - 24.8 °F 75% 30.25 in 7.0 mi Calm Calm - N/A   Clear
11:53 AM 33.8 °F - 24.8 °F 70% 30.25 in 10.0 mi Calm Calm - N/A   Clear
12:13 PM 33.8 °F - 26.6 °F 75% 30.25 in 5.0 mi Calm Calm - N/A   Drizzle
12:33 PM 33.8 °F - 24.8 °F 70% 30.25 in 10.0 mi Calm Calm - N/A   Clear
12:53 PM 33.8 °F - 24.8 °F 70% 30.24 in 10.0 mi Calm Calm - N/A   Clear
1:13 PM 35.6 °F - 24.8 °F 65% 30.24 in 10.0 mi Calm Calm - N/A   Clear
1:33 PM 35.6 °F - 24.8 °F 65% 30.24 in 10.0 mi Calm Calm - N/A   Clear
1:53 PM 35.6 °F - 23.0 °F 60% 30.24 in 10.0 mi Calm Calm - N/A   Clear
2:13 PM 35.6 °F 31.7 °F 21.2 °F 56% 30.23 in 10.0 mi East 4.6 mph - N/A   Clear
2:33 PM 35.6 °F 31.7 °F 21.2 °F 56% 30.23 in 10.0 mi ESE 4.6 mph - N/A   Clear
2:53 PM 35.6 °F 30.7 °F 23.0 °F 60% 30.23 in 10.0 mi SSE 5.8 mph - N/A   Clear
3:13 PM 35.6 °F 31.7 °F 24.8 °F 65% 30.22 in 10.0 mi ESE 4.6 mph - N/A   Clear
3:33 PM 35.6 °F 31.7 °F 23.0 °F 60% 30.22 in 10.0 mi East 4.6 mph - N/A   Clear
3:53 PM 35.6 °F 31.7 °F 23.0 °F 60% 30.23 in 10.0 mi ESE 4.6 mph - N/A   Scattered Clouds
4:13 PM 33.8 °F 30.8 °F 24.8 °F 70% 30.23 in 10.0 mi ESE 3.5 mph - N/A   Clear
4:33 PM 33.8 °F - 24.8 °F 70% 30.22 in 10.0 mi Calm Calm - N/A   Clear
4:53 PM 33.8 °F 29.6 °F 24.8 °F 70% 30.22 in 10.0 mi ENE 4.6 mph - N/A   Clear
5:13 PM 33.8 °F 29.6 °F 24.8 °F 70% 30.22 in 10.0 mi ENE 4.6 mph - N/A   Clear
5:33 PM 32.0 °F 28.7 °F 24.8 °F 75% 30.23 in 10.0 mi East 3.5 mph - N/A   Clear
5:53 PM 32.0 °F - 24.8 °F 75% 30.23 in 10.0 mi Calm Calm - N/A   Clear
6:13 PM 32.0 °F - 24.8 °F 75% 30.23 in 10.0 mi Calm Calm - N/A   Scattered Clouds
6:33 PM 32.0 °F - 24.8 °F 75% 30.23 in 10.0 mi Calm Calm - N/A   Clear
6:53 PM 32.0 °F - 24.8 °F 75% 30.23 in 10.0 mi Calm Calm - N/A   Clear
7:13 PM 30.2 °F 26.7 °F 26.6 °F 86% 30.24 in 10.0 mi NNE 3.5 mph - N/A   Clear
7:33 PM 30.2 °F - 26.6 °F 86% 30.24 in 10.0 mi Calm Calm - N/A   Clear
7:53 PM 30.2 °F - 26.6 °F 86% 30.24 in 10.0 mi Calm Calm - N/A   Scattered Clouds
8:13 PM 30.2 °F - 24.8 °F 80% 30.24 in 10.0 mi Calm Calm - N/A   Scattered Clouds
8:33 PM 30.2 °F - 24.8 °F 80% 30.24 in 10.0 mi Calm Calm - N/A   Scattered Clouds
8:53 PM 30.2 °F - 24.8 °F 80% 30.24 in 10.0 mi Calm Calm - N/A   Scattered Clouds
9:13 PM 30.2 °F - 24.8 °F 80% 30.25 in 10.0 mi Calm Calm - N/A   Scattered Clouds
9:33 PM 30.2 °F - 24.8 °F 80% 30.25 in 10.0 mi Calm Calm - N/A   Scattered Clouds
9:53 PM 30.2 °F - 23.0 °F 75% 30.25 in 10.0 mi Calm Calm - N/A   Scattered Clouds
10:13 PM 30.2 °F - 24.8 °F 80% 30.25 in 10.0 mi Calm Calm - N/A   Scattered Clouds
10:33 PM 30.2 °F - 23.0 °F 75% 30.25 in 10.0 mi Calm Calm - N/A   Scattered Clouds
10:53 PM 28.4 °F - 23.0 °F 80% 30.24 in 10.0 mi Calm Calm - N/A   Scattered Clouds
11:13 PM 28.4 °F - 21.2 °F 74% 30.24 in 10.0 mi Calm Calm - N/A   Scattered Clouds
11:33 PM 26.6 °F - 21.2 °F 80% 30.24 in 10.0 mi Calm Calm - N/A   Scattered Clouds
11:54 PM 26.6 °F - 21.2 °F 80% 30.24 in 10.0 mi Calm Calm - N/A   Clear